Flag for Japan Weather past 2 weeks in Sendai, Japan

Now
41 °F

Light rain. Passing clouds.


Feels Like: 34 °F
Forecast: 37 / 50 °F
Wind: 12 mph from South

Location: Sendai Airport

Current Time: Mar 3, 2015 at 8:27:37 PM

Latest Report: Mar 3, 2015 at 8:00 PM


Visibility: N/A

Pressure: 30.07 "Hg

Humidity: 76%

Dew point: 34 °F

Location of SendaiLocation

Historic Weather in Sendai — Graph

°F

Sendai temperature yesterday

Maximum temperature yesterday: 43 °F (at 10:00 AM)
Minimum temperature yesterday: 37 °F (at 9:00 PM)
Average temperature yesterday: 41 °F

Past Weeks' High & Low Weather Summary

 TemperatureHumidityPressure
High61 °F (Feb 23, 1:00 PM)100% (Feb 18, 7:00 AM)30.39 "Hg (Feb 18, 7:00 AM)
Low28 °F (Feb 17, 6:00 AM)37% (Feb 25, 3:00 PM)29.59 "Hg (Mar 2, 5:45 AM)
Average41 °F71%30.00 "Hg
* Reported Feb 16 7:00 PM — Mar 3 7:00 PM, Sendai, Weather by CustomWeather, © 2015

Note: Actual official high and low records may vary slightly from our data, if they occured in-between our weather recording intervals... More about our weather records

Advertising

Sendai weather history for previous 24 hours

 ConditionsComfort  
Time TempWeatherWind HumidityBarometerVisibility
7:00 PM
Tue, Mar 3
41 °FPartly cloudy.13 mph76%30.09 "HgN/A
6:00 PM41 °FPartly cloudy.13 mph70%30.07 "HgN/A
5:00 PM41 °FBroken clouds.16 mph70%30.09 "HgN/A
4:00 PM43 °FPartly sunny.14 mph61%30.12 "HgN/A
3:00 PM43 °FPartly sunny.12 mph61%30.12 "HgN/A
2:00 PM43 °FPartly sunny.10 mph57%30.15 "HgN/A
1:00 PM43 °FPartly sunny.9 mph53%30.15 "HgN/A
12:00 PM41 °FPartly sunny.7 mph49%30.18 "HgN/A
11:00 AM41 °FPartly sunny.8 mph49%30.18 "HgN/A
10:00 AM41 °FPartly sunny.7 mph45%30.18 "HgN/A
9:00 AM39 °FPartly sunny.2 mph48%30.15 "HgN/A
8:00 AM36 °FSunny.2 mph60%30.15 "Hg10 mi
7:00 AM30 °FPassing clouds.3 mph80%30.15 "HgN/A
6:00 AM32 °FPassing clouds.5 mph64%30.12 "HgN/A
9:00 PM
Mon, Mar 2
37 °FPassing clouds.3 mph45%30.04 "HgN/A
8:00 PM39 °FPassing clouds.14 mph45%30.01 "HgN/A
Weather by CustomWeather, © 2015

See weather overviewHow to use our weather pages